CYGFM02 (41886 NORAD) Tracking and Keplerian Element Data

This shows tracking and keplerian element data for the satellite.

Feedback or suggestion? Click here.




ElementValue
Catalog41886
NameCYGFM02
Epoch Orbit32023
Epoch Day269.29956819
Epoch Year2022
RAAN284.4506
Inclination34.9582
Eccentricity0.0014639
Argument of Perigee284.4449
Mean Anonmoly75.4639
Mean Motion15.17387565
Decay Rate3.369E-05
L11 41886U 16078C 22269.29956819 .00003369 00000+0 16590-3 0 9993
L22 41886 34.9582 284.4506 0014639 284.4449 75.4639 15.17387565320239

Live tracking and technical data element details for CYGFM02 (NORAD 41886). CYGFM02 can be tracked NOW for your location showing map with azimuth and elevation plus other details from your city location.

Track the satellite on the map from your city or location and see movement details for azimuth, elevation, latitude, longitude, range, height, and movement on the map or in text.







IsCatalogInMostPopularTable: catalog: 41886, numindb: 648
Update: records affected: 1



GetName: 41886 CYGFM02

Hit Count: updated at: Wed, 28 Sep 2022 22:15:15 GMT